sat.trackr.live / text

‹ back to catalog

STARLINK-31380

NORAD 58979 · 2024-031Q

PAYLOAD ACTIVE UNKNOWN

§ Identity

Operator
Country
US
Launch date
2024-02-15
Launch site
AFWTR
Launch vehicle
Mass (kg)
RCS (m²)

Purposes: comms

External: N2YO · Heavens-Above · Gunter

§ Orbital elements

Epoch: 2026-05-24T22:15:33.420960Z

Period
94.11 min
Inclination
53.1616°
Eccentricity
0.0000998
Mean motion
15.30197968 rev/d
Perigee alt
474.5 km
Apogee alt
475.9 km
Semi-major
6,853.4 km
B*
4.6508e-5
RAAN
302.7072°
Arg perigee
75.6127°
Mean anomaly
284.4985°
Rev number
12,818

§ Raw data

STARLINK-313801 58979U 24031Q   26144.92747015  .00001019  00000+0  46508-4 0  99972 58979  53.1616 302.7072 0000998  75.6127 284.4985 15.30197968128186

JSON: /api/v1/satellites/58979 · /tle

For live sub-satellite position, see the globe view (requires WebGL).

§ Visibility from observer

Set your observer location to see the next 7 days of passes ≥ 10°. The values pass through the URL so the page stays shareable.

No JS? Fill the form by hand. The geolocation button needs JavaScript.